,,Stat5,,Stat1,,Stat2,,Stat3,,Stat4,,Wind1,,Wind1,
time,status,PA1M_AVG,status,PR1M_SUM,status,RH1M_AVG,status,SR1M_AVG,status,TA1M_AVG,status,W1dAve1m,status,W1sAve1m,
2003-05-29, 00:00:01,VALID,918.296,VALID,0,VALID,98.4057,VALID,-0.0339617,VALID,18.8214,VALID,110,VALID,0.789063,
2003-05-29, 00:01:00,VALID,918.294,VALID,0,VALID,98.4235,VALID,0.0169808,VALID,18.8449,VALID,100,VALID,0.860491,
2003-05-29, 00:02:00,VALID,918.28,VALID,0,VALID,98.3993,VALID,-0.0339617,VALID,18.8611,VALID,103,VALID,0.82793,
2003-05-29, 00:03:00,VALID,918.27,VALID,0,VALID,98.3446,VALID,-0.0169808,VALID,18.877,VALID,102,VALID,0.789063,
2003-05-29, 00:04:00,VALID,918.253,VALID,0,VALID,98.3332,VALID,-0.0169808,VALID,18.8738,VALID,108,VALID,0.876603,
2003-05-29, 00:05:00,VALID,918.236,VALID,0,VALID,98.2849,VALID,0,VALID,18.8934,VALID,116,VALID,0.86986,
2003-05-29, 00:06:00,VALID,918.228,VALID,0,VALID,98.2963,VALID,-0.0339617,VALID,18.8929,VALID,108,VALID,0.864654,
2003-05-29, 00:07:00,VALID,918.241,VALID,0,VALID,98.2645,VALID,-0.0339617,VALID,18.9033,VALID,110,VALID,0.759079,
2003-05-29, 00:08:00,VALID,918.22,VALID,0,VALID,98.3573,VALID,0,VALID,18.9023,VALID,112,VALID,0.857639,
2003-05-29, 00:09:00,VALID,918.224,VALID,0,VALID,98.3891,VALID,-0.0169808,VALID,18.9123,VALID,121,VALID,0.928686,
2003-05-29, 00:10:00,VALID,918.203,VALID,0,VALID,98.4756,VALID,-0.0509425,VALID,18.9192,VALID,130,VALID,0.753125,
2003-05-29, 00:11:00,VALID,918.195,VALID,0,VALID,98.4209,VALID,-0.0509425,VALID,18.9219,VALID,131,VALID,0.604852,
2003-05-29, 00:12:00,VALID,918.197,VALID,0,VALID,98.5354,VALID,-0.0509425,VALID,18.9346,VALID,124,VALID,0.678886,
2003-05-29, 00:13:00,VALID,918.189,VALID,0,VALID,98.5786,VALID,-0.0169808,VALID,18.9416,VALID,132,VALID,0.753084,
2003-05-29, 00:14:00,VALID,918.178,VALID,0,VALID,98.735,VALID,-0.0509425,VALID,18.9932,VALID,132,VALID,0.486637,
2003-05-29, 00:15:00,VALID,918.162,VALID,0,VALID,98.6155,VALID,-0.0509425,VALID,18.99,VALID,132,VALID,0.365854,
2003-05-29, 00:16:00,VALID,918.148,VALID,0,VALID,98.5862,VALID,-0.0339617,VALID,18.9801,VALID,132,VALID,0.541466,
2003-05-29, 00:17:00,VALID,918.127,VALID,0,VALID,98.6053,VALID,0,VALID,18.983,VALID,130,VALID,0.415707,
2003-05-29, 00:18:00,VALID,918.111,VALID,0,VALID,98.5455,VALID,-0.0169808,VALID,18.9763,VALID,136,VALID,0.386018,
2003-05-29, 00:19:00,VALID,918.093,VALID,0,VALID,98.4553,VALID,0,VALID,18.9669,VALID,138,VALID,0.388622,
2003-05-29, 00:20:00,VALID,918.078,VALID,0,VALID,98.3383,VALID,0.0169808,VALID,18.9346,VALID,138,VALID,0.349359,
2003-05-29, 00:21:00,VALID,918.054,VALID,0,VALID,98.234,VALID,0,VALID,18.9118,VALID,138,VALID,0.284745,
2003-05-29, 00:22:00,VALID,918.047,VALID,0,VALID,98.056,VALID,0,VALID,18.8636,VALID,138,VALID,0.238076,
2003-05-29, 00:23:00,VALID,918.04,VALID,0,VALID,98.0483,VALID,-0.0169808,VALID,18.8216,VALID,138,VALID,0.213695,
2003-05-29, 00:24:00,VALID,918.051,VALID,0,VALID,97.9873,VALID,-0.0169808,VALID,18.7924,VALID,138,VALID,0.349609,
2003-05-29, 00:25:00,VALID,918.045,VALID,0,VALID,98.0344,VALID,0,VALID,18.7605,VALID,138,VALID,0.448808,
2003-05-29, 00:26:00,VALID,918.013,VALID,0,VALID,97.869,VALID,0.0679233,VALID,18.737,VALID,138,VALID,0.561415,
2003-05-29, 00:27:00,VALID,917.999,VALID,0,VALID,97.8449,VALID,0.0849042,VALID,18.6814,VALID,138,VALID,0.688345,
2003-05-29, 00:28:00,VALID,917.972,VALID,0,VALID,97.939,VALID,0.0849042,VALID,18.6395,VALID,132,VALID,0.415264,
2003-05-29, 00:29:00,VALID,917.954,VALID,0,VALID,97.7699,VALID,0.101885,VALID,18.6169,VALID,132,VALID,0.238477,
2003-05-29, 00:30:00,VALID,917.932,VALID,0,VALID,97.4634,VALID,0.0679233,VALID,18.5397,VALID,132,VALID,0.167268,
2003-05-29, 00:31:00,VALID,917.928,VALID,0,VALID,97.2218,VALID,0.0849042,VALID,18.4555,VALID,132,VALID,0.100195,
2003-05-29, 00:32:00,VALID,917.922,VALID,0,VALID,97.162,VALID,0.101885,VALID,18.3877,VALID,132,VALID,0,
2003-05-29, 00:33:00,VALID,917.917,VALID,0,VALID,97.0692,VALID,0.101885,VALID,18.3232,VALID,132,VALID,0,
2003-05-29, 00:34:00,VALID,917.909,VALID,0,VALID,96.8238,VALID,0.0679233,VALID,18.2663,VALID,132,VALID,0,
2003-05-29, 00:35:00,VALID,917.876,VALID,0,VALID,96.998,VALID,0.101885,VALID,18.2045,VALID,132,VALID,0.0136719,
2003-05-29, 00:36:00,VALID,917.85,VALID,0,VALID,96.5987,VALID,0.0679233,VALID,18.1367,VALID,132,VALID,0.142188,
2003-05-29, 00:37:00,VALID,917.826,VALID,0,VALID,95.5827,VALID,0.0849042,VALID,17.9523,VALID,91,VALID,0.388281,
2003-05-29, 00:38:00,VALID,917.8,VALID,0,VALID,95.0613,VALID,0.0679233,VALID,17.7234,VALID,46,VALID,0.323518,
2003-05-29, 00:39:00,VALID,917.783,VALID,0,VALID,95.7951,VALID,0.101885,VALID,17.6299,VALID,46,VALID,0.518914,
2003-05-29, 00:40:00,VALID,917.767,VALID,0,VALID,96.1664,VALID,0.0849042,VALID,17.5621,VALID,41,VALID,0.701891,
2003-05-29, 00:41:00,VALID,917.739,VALID,0,VALID,96.586,VALID,-0.0169808,VALID,17.5123,VALID,34,VALID,0.656651,
2003-05-29, 00:42:00,VALID,917.752,VALID,0,VALID,96.7856,VALID,-0.0339617,VALID,17.4512,VALID,28,VALID,0.391016,
2003-05-29, 00:43:00,VALID,917.758,VALID,0,VALID,97.2002,VALID,-0.0169808,VALID,17.415,VALID,14,VALID,0.304476,
2003-05-29, 00:44:00,VALID,917.748,VALID,0,VALID,97.8118,VALID,-0.0679233,VALID,17.4608,VALID,360,VALID,0.254006,
2003-05-29, 00:45:00,VALID,917.74,VALID,0,VALID,98.4095,VALID,-0.0169808,VALID,17.5544,VALID,360,VALID,0.373998,
2003-05-29, 00:46:00,VALID,917.71,VALID,0,VALID,98.5468,VALID,-0.0169808,VALID,17.5837,VALID,2,VALID,0.3731,
2003-05-29, 00:47:00,VALID,917.66,VALID,0,VALID,98.9334,VALID,0,VALID,17.648,VALID,33,VALID,0.575802,
2003-05-29, 00:48:00,VALID,917.649,VALID,0,VALID,99.3632,VALID,-0.0509425,VALID,17.7741,VALID,44,VALID,0.571875,
2003-05-29, 00:49:00,VALID,917.646,VALID,0,VALID,99.4954,VALID,0,VALID,17.8771,VALID,45,VALID,0.491039,
2003-05-29, 00:50:00,VALID,917.658,VALID,0,VALID,99.2996,VALID,-0.0509425,VALID,17.8999,VALID,45,VALID,0.19778,
2003-05-29, 00:51:00,VALID,917.673,VALID,0,VALID,99.1724,VALID,-0.0509425,VALID,17.8771,VALID,45,VALID,0.0328526,
2003-05-29, 00:52:00,VALID,917.683,VALID,0,VALID,99.1877,VALID,-0.0169808,VALID,17.8674,VALID,45,VALID,0,
2003-05-29, 00:53:00,VALID,917.667,VALID,0,VALID,99.1724,VALID,-0.0509425,VALID,17.8545,VALID,45,VALID,0,
2003-05-29, 00:54:00,VALID,917.648,VALID,0,VALID,99.2271,VALID,-0.0679233,VALID,17.8513,VALID,45,VALID,0,
2003-05-29, 00:55:00,VALID,917.651,VALID,0,VALID,99.2691,VALID,-0.0339617,VALID,17.8776,VALID,45,VALID,0,
2003-05-29, 00:56:00,VALID,917.628,VALID,0,VALID,98.7859,VALID,-0.0169808,VALID,17.8096,VALID,74,VALID,0.387952,
2003-05-29, 00:57:00,VALID,917.611,VALID,0,VALID,98.8901,VALID,-0.0339617,VALID,17.7128,VALID,108,VALID,0.751603,
2003-05-29, 00:58:00,VALID,917.601,VALID,0,VALID,99.6188,VALID,-0.0169808,VALID,17.8193,VALID,108,VALID,0.57492,
2003-05-29, 00:59:00,VALID,917.575,VALID,0,VALID,99.573,VALID,0,VALID,17.9193,VALID,108,VALID,0.383213,
2003-05-29, 01:00:00,VALID,917.563,VALID,0,VALID,99.0745,VALID,0,VALID,17.8548,VALID,108,VALID,0.100535,
2003-05-29, 01:01:00,VALID,917.569,VALID,0,VALID,99.1343,VALID,-0.0509425,VALID,17.7937,VALID,108,VALID,0.0900493,
2003-05-29, 01:02:00,VALID,917.573,VALID,0,VALID,98.9779,VALID,-0.0339617,VALID,17.7416,VALID,136,VALID,0.609835,
2003-05-29, 01:03:00,VALID,917.564,VALID,0,VALID,98.8215,VALID,-0.0509425,VALID,17.6611,VALID,148,VALID,0.911719,
2003-05-29, 01:04:00,VALID,917.563,VALID,0,VALID,98.8177,VALID,-0.0679233,VALID,17.6063,VALID,141,VALID,0.708059,
2003-05-29, 01:05:00,VALID,917.562,VALID,0,VALID,98.9258,VALID,-0.0169808,VALID,17.5706,VALID,135,VALID,0.628906,
2003-05-29, 01:06:00,VALID,917.574,VALID,0,VALID,99.0491,VALID,-0.0509425,VALID,17.5579,VALID,132,VALID,0.512035,
2003-05-29, 01:07:00,VALID,917.565,VALID,0,VALID,99.1216,VALID,-0.0849042,VALID,17.5516,VALID,132,VALID,0.455664,
2003-05-29, 01:08:00,VALID,917.569,VALID,0,VALID,99.161,VALID,-0.0679233,VALID,17.5712,VALID,132,VALID,0.328906,
2003-05-29, 01:09:00,VALID,917.548,VALID,0,VALID,99.1521,VALID,-0.0339617,VALID,17.5484,VALID,118,VALID,0.61899,
2003-05-29, 01:10:00,VALID,917.523,VALID,0,VALID,99.7459,VALID,-0.0679233,VALID,17.6584,VALID,114,VALID,0.938672,
2003-05-29, 01:11:00,VALID,917.491,VALID,0,VALID,99.8489,VALID,-0.0169808,VALID,17.8485,VALID,114,VALID,0.845508,
2003-05-29, 01:12:00,VALID,917.474,VALID,0,VALID,99.9112,VALID,-0.0509425,VALID,17.9869,VALID,113,VALID,0.756334,
2003-05-29, 01:13:00,VALID,917.451,VALID,0,VALID,99.9494,VALID,-0.0339617,VALID,18.1033,VALID,108,VALID,0.827492,
2003-05-29, 01:14:00,VALID,917.422,VALID,0,VALID,99.9557,VALID,-0.0679233,VALID,18.1906,VALID,107,VALID,1.00098,
2003-05-29, 01:15:00,VALID,917.388,VALID,0,VALID,99.9507,VALID,-0.0169808,VALID,18.2291,VALID,110,VALID,1.09821,
2003-05-29, 01:16:00,VALID,917.338,VALID,0,VALID,99.924,VALID,-0.0509425,VALID,18.2261,VALID,105,VALID,1.0123,
2003-05-29, 01:17:00,VALID,917.306,VALID,0,VALID,99.8934,VALID,-0.0339617,VALID,18.2192,VALID,107,VALID,1.10317,
2003-05-29, 01:18:00,VALID,917.272,VALID,0,VALID,99.8667,VALID,-0.0509425,VALID,18.2356,VALID,109,VALID,1.06579,
2003-05-29, 01:19:00,VALID,917.266,VALID,0,VALID,99.8489,VALID,-0.0339617,VALID,18.2324,VALID,108,VALID,0.989309,
2003-05-29, 01:20:00,VALID,917.243,VALID,0,VALID,99.8222,VALID,-0.0509425,VALID,18.2356,VALID,108,VALID,0.913462,
2003-05-29, 01:21:00,VALID,917.221,VALID,0,VALID,99.7434,VALID,0,VALID,18.2065,VALID,106,VALID,1.15742,
2003-05-29, 01:22:00,VALID,917.194,VALID,0,VALID,99.6073,VALID,-0.0509425,VALID,18.1484,VALID,98,VALID,1.14759,
2003-05-29, 01:23:00,VALID,917.173,VALID,0,VALID,99.5425,VALID,-0.0679233,VALID,18.1102,VALID,106,VALID,1.23317,
2003-05-29, 01:24:00,VALID,917.145,VALID,0,VALID,99.5158,VALID,-0.0169808,VALID,18.0908,VALID,112,VALID,1.14203,
2003-05-29, 01:25:00,VALID,917.13,VALID,0,VALID,99.3746,VALID,-0.0169808,VALID,18.035,VALID,114,VALID,0.842694,
2003-05-29, 01:26:00,VALID,917.144,VALID,0,VALID,99.3123,VALID,-0.0509425,VALID,17.9871,VALID,124,VALID,0.79962,
2003-05-29, 01:27:00,VALID,917.138,VALID,0,VALID,99.4179,VALID,-0.0339617,VALID,17.9682,VALID,106,VALID,1.12754,
2003-05-29, 01:28:00,VALID,917.133,VALID,0,VALID,99.4954,VALID,-0.0169808,VALID,17.9774,VALID,105,VALID,1.16843,
2003-05-29, 01:29:00,VALID,917.137,VALID,0,VALID,99.5348,VALID,0,VALID,17.9836,VALID,99,VALID,1.12377,
2003-05-29, 01:30:00,VALID,917.133,VALID,0,VALID,99.4802,VALID,-0.0339617,VALID,17.9869,VALID,96,VALID,0.97496,
2003-05-29, 01:31:00,VALID,917.128,VALID,0,VALID,99.4891,VALID,-0.0169808,VALID,17.9839,VALID,107,VALID,0.831414,
2003-05-29, 01:32:00,VALID,917.122,VALID,0,VALID,99.3937,VALID,-0.0339617,VALID,17.9744,VALID,115,VALID,0.748561,
2003-05-29, 01:33:00,VALID,917.118,VALID,0,VALID,99.2373,VALID,0,VALID,17.9191,VALID,113,VALID,0.466463,
2003-05-29, 01:34:00,VALID,917.11,VALID,0,VALID,99.292,VALID,-0.0339617,VALID,17.8905,VALID,135,VALID,0.615184,
2003-05-29, 01:35:00,VALID,917.09,VALID,0,VALID,99.3695,VALID,-0.0509425,VALID,17.8804,VALID,143,VALID,0.898232,
2003-05-29, 01:36:00,VALID,917.088,VALID,0,VALID,99.3441,VALID,-0.0679233,VALID,17.8801,VALID,143,VALID,0.836739,
2003-05-29, 01:37:00,VALID,917.091,VALID,0,VALID,99.3454,VALID,-0.0849042,VALID,17.8776,VALID,144,VALID,0.808494,
2003-05-29, 01:38:00,VALID,917.088,VALID,0,VALID,99.4458,VALID,-0.0339617,VALID,17.8933,VALID,130,VALID,0.605168,
2003-05-29, 01:39:00,VALID,917.084,VALID,0,VALID,99.5183,VALID,-0.0169808,VALID,17.9225,VALID,128,VALID,0.634663,
2003-05-29, 01:40:00,VALID,917.084,VALID,0,VALID,99.4992,VALID,-0.0509425,VALID,17.9451,VALID,139,VALID,0.771382,
2003-05-29, 01:41:00,VALID,917.073,VALID,0,VALID,99.498,VALID,-0.0339617,VALID,17.9613,VALID,140,VALID,0.923024,
2003-05-29, 01:42:00,VALID,917.06,VALID,0,VALID,99.5336,VALID,-0.0339617,VALID,17.9809,VALID,144,VALID,0.892578,
2003-05-29, 01:43:00,VALID,917.049,VALID,0,VALID,99.5183,VALID,-0.0169808,VALID,17.9839,VALID,141,VALID,0.769531,
2003-05-29, 01:44:00,VALID,917.033,VALID,0,VALID,99.4204,VALID,-0.0679233,VALID,17.9739,VALID,140,VALID,0.740668,
2003-05-29, 01:45:00,VALID,917.043,VALID,0,VALID,99.3619,VALID,-0.0509425,VALID,17.9583,VALID,133,VALID,0.722973,
2003-05-29, 01:46:00,VALID,917.043,VALID,0,VALID,99.4942,VALID,-0.0849042,VALID,17.9548,VALID,128,VALID,1.06582,
2003-05-29, 01:47:00,VALID,917.048,VALID,0,VALID,99.5412,VALID,-0.0679233,VALID,18,VALID,112,VALID,0.804102,
2003-05-29, 01:48:00,VALID,917.055,VALID,0,VALID,99.5539,VALID,-0.0339617,VALID,18.0357,VALID,107,VALID,0.679087,
2003-05-29, 01:49:00,VALID,917.079,VALID,0,VALID,99.5298,VALID,-0.0679233,VALID,18.0648,VALID,106,VALID,0.920313,
2003-05-29, 01:50:00,VALID,917.071,VALID,0,VALID,99.5997,VALID,-0.0169808,VALID,18.1097,VALID,111,VALID,1.26113,
2003-05-29, 01:51:00,VALID,917.084,VALID,0,VALID,99.6175,VALID,-0.0339617,VALID,18.1551,VALID,110,VALID,1.12838,
2003-05-29, 01:52:00,VALID,917.084,VALID,0,VALID,99.5819,VALID,-0.0169808,VALID,18.2038,VALID,111,VALID,1.32073,
2003-05-29, 01:53:00,VALID,917.09,VALID,0,VALID,99.4357,VALID,-0.0679233,VALID,18.2167,VALID,115,VALID,1.16387,
2003-05-29, 01:54:00,VALID,917.081,VALID,0,VALID,99.3492,VALID,-0.0339617,VALID,18.2068,VALID,107,VALID,0.897098,
2003-05-29, 01:55:00,VALID,917.09,VALID,0,VALID,99.2233,VALID,-0.0339617,VALID,18.1904,VALID,97,VALID,0.790625,
2003-05-29, 01:56:00,VALID,917.093,VALID,0,VALID,99.0796,VALID,-0.0169808,VALID,18.1745,VALID,109,VALID,1.23758,
2003-05-29, 01:57:00,VALID,917.076,VALID,0,VALID,98.8227,VALID,0,VALID,18.1485,VALID,109,VALID,1.22163,
2003-05-29, 01:58:00,VALID,917.077,VALID,0,VALID,98.5761,VALID,-0.0339617,VALID,18.1291,VALID,114,VALID,0.943462,
2003-05-29, 01:59:00,VALID,917.048,VALID,0,VALID,98.4349,VALID,-0.0509425,VALID,18.1125,VALID,113,VALID,0.893429,
2003-05-29, 02:00:00,VALID,917.032,VALID,0,VALID,98.1641,VALID,-0.0339617,VALID,18.1127,VALID,125,VALID,0.588867,
2003-05-29, 02:01:00,VALID,917.027,VALID,0,VALID,98.0216,VALID,-0.0509425,VALID,18.1229,VALID,117,VALID,0.976351,
2003-05-29, 02:02:00,VALID,916.99,VALID,0,VALID,97.8334,VALID,-0.0339617,VALID,18.1289,VALID,115,VALID,0.888221,
2003-05-29, 02:03:00,VALID,916.97,VALID,0,VALID,97.6796,VALID,-0.0169808,VALID,18.1319,VALID,114,VALID,0.947917,
2003-05-29, 02:04:00,VALID,916.944,VALID,0,VALID,97.5308,VALID,-0.0339617,VALID,18.1618,VALID,106,VALID,1.02872,
2003-05-29, 02:05:00,VALID,916.903,VALID,0,VALID,97.452,VALID,0,VALID,18.1581,VALID,97,VALID,0.988176,
2003-05-29, 02:06:00,VALID,916.885,VALID,0,VALID,97.5257,VALID,0,VALID,18.1644,VALID,107,VALID,1.05547,
2003-05-29, 02:07:01,VALID,916.867,VALID,0,VALID,97.5651,VALID,-0.0169808,VALID,18.1936,VALID,113,VALID,1.01471,
2003-05-29, 02:08:00,VALID,916.883,VALID,0,VALID,97.5829,VALID,0,VALID,18.216,VALID,114,VALID,1.07031,
2003-05-29, 02:09:00,VALID,916.888,VALID,0,VALID,97.4227,VALID,-0.0339617,VALID,18.2158,VALID,98,VALID,0.815905,
2003-05-29, 02:10:00,VALID,916.892,VALID,0,VALID,97.2943,VALID,-0.0339617,VALID,18.2257,VALID,88,VALID,0.767681,
2003-05-29, 02:11:00,VALID,916.89,VALID,0,VALID,97.0781,VALID,-0.0169808,VALID,18.2095,VALID,78,VALID,0.72389,
2003-05-29, 02:12:00,VALID,916.896,VALID,0,VALID,97.0438,VALID,0,VALID,18.1828,VALID,91,VALID,0.676448,
2003-05-29, 02:13:00,VALID,916.872,VALID,0,VALID,97.0654,VALID,0,VALID,18.1929,VALID,105,VALID,0.624599,
2003-05-29, 02:14:00,VALID,916.865,VALID,0,VALID,96.7132,VALID,-0.0169808,VALID,18.1542,VALID,96,VALID,0.613692,
2003-05-29, 02:15:00,VALID,916.867,VALID,0,VALID,96.3864,VALID,0,VALID,18.0705,VALID,80,VALID,0.735777,
2003-05-29, 02:16:00,VALID,916.855,VALID,0,VALID,96.3469,VALID,-0.0169808,VALID,17.9705,VALID,74,VALID,0.995793,
2003-05-29, 02:17:00,VALID,916.835,VALID,0,VALID,97.2027,VALID,-0.0169808,VALID,17.938,VALID,77,VALID,1.1889,
2003-05-29, 02:18:00,VALID,916.806,VALID,0,VALID,97.5473,VALID,0,VALID,17.9675,VALID,74,VALID,1.03248,
2003-05-29, 02:19:00,VALID,916.774,VALID,0,VALID,97.3808,VALID,0,VALID,17.9152,VALID,70,VALID,0.898849,
2003-05-29, 02:20:00,VALID,916.768,VALID,0,VALID,97.0552,VALID,0,VALID,17.8707,VALID,70,VALID,0.857307,
2003-05-29, 02:21:00,VALID,916.757,VALID,0,VALID,96.7729,VALID,0,VALID,17.7349,VALID,71,VALID,0.776563,
2003-05-29, 02:22:00,VALID,916.756,VALID,0,VALID,97.6656,VALID,-0.0169808,VALID,17.7386,VALID,76,VALID,0.674753,
2003-05-29, 02:23:00,VALID,916.761,VALID,0,VALID,97.766,VALID,0,VALID,17.7416,VALID,76,VALID,0.585286,
2003-05-29, 02:24:00,VALID,916.759,VALID,0,VALID,97.5753,VALID,-0.0169808,VALID,17.7128,VALID,76,VALID,0.546242,
2003-05-29, 02:25:01,VALID,916.747,VALID,0,VALID,97.663,VALID,-0.0169808,VALID,17.6773,VALID,76,VALID,0.51543,
2003-05-29, 02:26:00,VALID,916.726,VALID,0,VALID,96.6025,VALID,-0.0169808,VALID,17.5254,VALID,76,VALID,0.594727,
2003-05-29, 02:27:00,VALID,916.699,VALID,0,VALID,96.2223,VALID,-0.0169808,VALID,17.3675,VALID,76,VALID,0.549279,
2003-05-29, 02:28:00,VALID,916.243,VALID,0,VALID,95.5496,VALID,-0.0169808,VALID,17.1739,VALID,73,VALID,0.411133,
2003-05-29, 02:29:00,VALID,916.651,VALID,0,VALID,95.9782,VALID,0.0169808,VALID,17.0605,VALID,72,VALID,0.175391,
2003-05-29, 02:30:00,VALID,916.633,VALID,0,VALID,96.3775,VALID,0,VALID,17.019,VALID,72,VALID,0.0705236,
2003-05-29, 02:31:00,VALID,916.63,VALID,0,VALID,96.8174,VALID,-0.0169808,VALID,16.9904,VALID,72,VALID,0,
2003-05-29, 02:32:00,VALID,916.625,VALID,0,VALID,97.4469,VALID,-0.0339617,VALID,17.0287,VALID,72,VALID,0.000976563,
2003-05-29, 02:33:00,VALID,916.632,VALID,0,VALID,98.3472,VALID,0.0169808,VALID,17.1967,VALID,72,VALID,0.00803571,
2003-05-29, 02:34:00,VALID,916.616,VALID,0,VALID,98.6346,VALID,0,VALID,17.2645,VALID,72,VALID,0,
2003-05-29, 02:35:00,VALID,916.603,VALID,0,VALID,98.7503,VALID,0,VALID,17.3223,VALID,72,VALID,0,
2003-05-29, 02:36:01,VALID,916.596,VALID,0,VALID,98.8189,VALID,-0.0509425,VALID,17.3649,VALID,72,VALID,0,
2003-05-29, 02:37:01,VALID,916.596,VALID,0,VALID,98.7744,VALID,0,VALID,17.358,VALID,72,VALID,0,
2003-05-29, 02:38:01,VALID,916.614,VALID,0,VALID,98.7948,VALID,0,VALID,17.3613,VALID,72,VALID,0,
2003-05-29, 02:39:00,VALID,916.614,VALID,0,VALID,98.6943,VALID,-0.0339617,VALID,17.3423,VALID,72,VALID,0,
2003-05-29, 02:40:00,VALID,916.635,VALID,0,VALID,98.5163,VALID,0,VALID,17.3036,VALID,72,VALID,0,
2003-05-29, 02:41:00,VALID,916.637,VALID,0,VALID,98.0725,VALID,-0.0339617,VALID,17.1898,VALID,72,VALID,0,
2003-05-29, 02:42:00,VALID,916.666,VALID,0,VALID,98.0267,VALID,-0.0169808,VALID,17.1031,VALID,72,VALID,0,
2003-05-29, 02:43:00,VALID,916.672,VALID,0,VALID,98.3179,VALID,0,VALID,17.0709,VALID,72,VALID,0,
2003-05-29, 02:44:01,VALID,916.692,VALID,0,VALID,98.9664,VALID,-0.0339617,VALID,17.1681,VALID,72,VALID,0,
2003-05-29, 02:45:01,VALID,916.698,VALID,0,VALID,99.531,VALID,0,VALID,17.2941,VALID,72,VALID,0.00449219,
2003-05-29, 02:46:01,VALID,916.71,VALID,0,VALID,99.7243,VALID,-0.0169808,VALID,17.4359,VALID,72,VALID,0.268612,
2003-05-29, 02:47:00,VALID,916.716,VALID,0,VALID,99.662,VALID,0,VALID,17.5007,VALID,72,VALID,0.344572,
2003-05-29, 02:48:00,VALID,916.721,VALID,0,VALID,99.6556,VALID,0,VALID,17.5387,VALID,72,VALID,0.342348,
2003-05-29, 02:49:00,VALID,916.754,VALID,0,VALID,99.5056,VALID,-0.0169808,VALID,17.5523,VALID,72,VALID,0.209293,
2003-05-29, 02:50:00,VALID,916.747,VALID,0,VALID,99.1292,VALID,-0.0339617,VALID,17.4746,VALID,72,VALID,0.00904605,
2003-05-29, 02:51:01,VALID,916.764,VALID,0,VALID,98.9881,VALID,-0.0339617,VALID,17.3813,VALID,72,VALID,0,
2003-05-29, 02:52:00,VALID,916.786,VALID,0,VALID,99.0008,VALID,-0.0169808,VALID,17.3004,VALID,89,VALID,0.227364,
2003-05-29, 02:53:01,VALID,916.798,VALID,0,VALID,98.824,VALID,0,VALID,17.2197,VALID,140,VALID,0.669819,
2003-05-29, 02:54:00,VALID,916.813,VALID,0,VALID,98.7312,VALID,0,VALID,17.1356,VALID,145,VALID,0.841546,
2003-05-29, 02:55:00,VALID,916.81,VALID,0,VALID,99.0249,VALID,0,VALID,17.1135,VALID,146,VALID,0.863181,
2003-05-29, 02:56:00,VALID,916.798,VALID,0,VALID,99.5043,VALID,0,VALID,17.1877,VALID,139,VALID,0.795673,
2003-05-29, 02:57:01,VALID,916.788,VALID,0,VALID,99.7078,VALID,0,VALID,17.3101,VALID,149,VALID,0.667763,
2003-05-29, 02:58:00,VALID,916.752,VALID,0,VALID,99.704,VALID,0,VALID,17.3905,VALID,147,VALID,0.342311,
2003-05-29, 02:59:00,VALID,916.742,VALID,0,VALID,99.7078,VALID,0.0169808,VALID,17.4421,VALID,147,VALID,0.121553,
2003-05-29, 03:00:00,VALID,916.709,VALID,0,VALID,99.6468,VALID,0.0169808,VALID,17.4749,VALID,147,VALID,0,
2003-05-29, 03:01:00,VALID,916.715,VALID,0,VALID,99.5857,VALID,-0.0169808,VALID,17.465,VALID,147,VALID,0,
2003-05-29, 03:02:00,VALID,916.706,VALID,0,VALID,99.6582,VALID,-0.0169808,VALID,17.4871,VALID,147,VALID,0,
2003-05-29, 03:03:01,VALID,916.696,VALID,0,VALID,99.4496,VALID,0.0169808,VALID,17.4647,VALID,147,VALID,0.0605997,
2003-05-29, 03:04:01,VALID,916.692,VALID,0,VALID,99.2246,VALID,0,VALID,17.3421,VALID,147,VALID,0,
2003-05-29, 03:05:00,VALID,916.685,VALID,0,VALID,99.1267,VALID,-0.0169808,VALID,17.2619,VALID,69,VALID,0.0990234,
2003-05-29, 03:06:00,VALID,916.653,VALID,0,VALID,98.9995,VALID,-0.0169808,VALID,17.1423,VALID,36,VALID,0.417869,
2003-05-29, 03:07:00,VALID,916.625,VALID,0,VALID,99.1661,VALID,-0.0339617,VALID,17.1229,VALID,36,VALID,0.516602,
2003-05-29, 03:08:00,VALID,916.605,VALID,0,VALID,99.1381,VALID,0,VALID,17.0973,VALID,36,VALID,0.341016,
2003-05-29, 03:09:00,VALID,916.589,VALID,0,VALID,99.1038,VALID,-0.0339617,VALID,17.0491,VALID,36,VALID,0.30701,
2003-05-29, 03:10:00,VALID,916.581,VALID,0,VALID,99.189,VALID,-0.0169808,VALID,17.0395,VALID,36,VALID,0.23522,
2003-05-29, 03:11:00,VALID,916.58,VALID,0,VALID,99.2576,VALID,0.0339617,VALID,17.0515,VALID,36,VALID,0.0673828,
2003-05-29, 03:12:00,VALID,916.58,VALID,0,VALID,99.1877,VALID,0.0509425,VALID,17.0319,VALID,36,VALID,0,
2003-05-29, 03:13:00,VALID,916.601,VALID,0,VALID,99.3416,VALID,0.0509425,VALID,17.0218,VALID,37,VALID,0.0808594,
2003-05-29, 03:14:00,VALID,916.594,VALID,0,VALID,99.5425,VALID,0.0679233,VALID,17.0769,VALID,38,VALID,0.0576923,
2003-05-29, 03:15:01,VALID,916.599,VALID,0,VALID,99.634,VALID,0.101885,VALID,17.1414,VALID,38,VALID,0.0170641,
2003-05-29, 03:16:01,VALID,916.607,VALID,0,VALID,99.7192,VALID,0.0849042,VALID,17.2128,VALID,38,VALID,0.102385,
2003-05-29, 03:17:01,VALID,916.607,VALID,0,VALID,99.765,VALID,0.0509425,VALID,17.2967,VALID,39,VALID,0.276042,
2003-05-29, 03:18:00,VALID,916.591,VALID,0,VALID,99.7841,VALID,0.0679233,VALID,17.3546,VALID,39,VALID,0.260547,
2003-05-29, 03:19:00,VALID,916.6,VALID,0,VALID,99.8438,VALID,0.0339617,VALID,17.4221,VALID,39,VALID,0.326014,
2003-05-29, 03:20:00,VALID,916.612,VALID,0,VALID,99.8451,VALID,0.0509425,VALID,17.4806,VALID,39,VALID,0.204127,
2003-05-29, 03:21:00,VALID,916.64,VALID,0,VALID,99.8413,VALID,0.0679233,VALID,17.5062,VALID,39,VALID,0.191106,
2003-05-29, 03:22:00,VALID,916.645,VALID,0,VALID,99.8604,VALID,0.0679233,VALID,17.5613,VALID,39,VALID,0.421664,
2003-05-29, 03:23:01,VALID,916.655,VALID,0,VALID,99.8222,VALID,0.0679233,VALID,17.5385,VALID,39,VALID,0.507813,
2003-05-29, 03:24:00,VALID,916.658,VALID,0,VALID,99.6366,VALID,0.0509425,VALID,17.4196,VALID,39,VALID,0.592578,
2003-05-29, 03:25:01,VALID,916.671,VALID,0,VALID,99.5476,VALID,0.0509425,VALID,17.3318,VALID,35,VALID,0.96852,
2003-05-29, 03:26:00,VALID,916.665,VALID,0,VALID,99.6556,VALID,-0.0339617,VALID,17.3398,VALID,32,VALID,0.935238,
2003-05-29, 03:27:01,VALID,916.638,VALID,0,VALID,99.5031,VALID,0,VALID,17.2556,VALID,32,VALID,0.670873,
2003-05-29, 03:28:00,VALID,916.628,VALID,0,VALID,99.2513,VALID,-0.0679233,VALID,17.1369,VALID,27,VALID,0.676398,
2003-05-29, 03:29:00,VALID,916.598,VALID,0,VALID,99.1496,VALID,-0.0509425,VALID,17.004,VALID,23,VALID,0.743215,
2003-05-29, 03:30:00,VALID,916.583,VALID,0,VALID,99.2729,VALID,-0.0339617,VALID,16.9588,VALID,21,VALID,0.750953,
2003-05-29, 03:31:00,VALID,916.567,VALID,0,VALID,99.6811,VALID,0,VALID,17.0623,VALID,12,VALID,0.836138,
2003-05-29, 03:32:01,VALID,916.551,VALID,0,VALID,99.6989,VALID,-0.0339617,VALID,17.0977,VALID,11,VALID,0.855469,
2003-05-29, 03:33:00,VALID,916.549,VALID,0,VALID,99.8235,VALID,-0.0679233,VALID,17.2234,VALID,9,VALID,0.911458,
2003-05-29, 03:34:00,VALID,916.539,VALID,0,VALID,99.8922,VALID,-0.0339617,VALID,17.3363,VALID,12,VALID,0.619992,
2003-05-29, 03:35:00,VALID,916.555,VALID,0,VALID,99.9201,VALID,0,VALID,17.3914,VALID,19,VALID,0.530649,